Home > Weather > Narragansett > Past weeks

Flag for USA Past Weather in Narragansett, Rhode Island, USA — Yesterday and Last 2 Weeks

Now
70 °F

Clear.


Feels Like: 65 °F
Forecast: 70 / 80 °F
Wind: No wind

Location: Newport State Airport

Current Time: Jul 29, 2016 at 11:47:00 PM

Latest Report: Jul 29, 2016 at 10:53 PM


Visibility: 7 mi

Pressure: 29.90 "Hg

Humidity: 93%

Dew Point: 68 °F

Location of NarragansettLocation

Past Weather in Narragansett — Graph

°F

Narragansett Temperature Yesterday

Maximum temperature yesterday: 83 °F (at 10:53 AM)
Minimum temperature yesterday: 69 °F (at 2:53 AM)
Average temperature yesterday: 77 °F

High & Low Weather Summary for the Past Weeks

 TemperatureHumidityPressure
High91 °F (Jul 23, 1:53 PM)100% (Jul 15, 12:53 AM)30.21 "Hg (Jul 15, 12:53 AM)
Low58 °F (Jul 20, 4:53 AM)34% (Jul 19, 5:53 PM)29.73 "Hg (Jul 23, 4:53 PM)
Average76 °F74%29.94 "Hg
* Reported Jul 14 9:53 PM — Jul 29 9:53 PM, Narragansett, Weather by CustomWeather, © 2016

Note: Actual official high and low records may vary slightly from our data, if they occured in-between our weather recording intervals... More about our weather records

Advertising

Narragansett Weather History for the Previous 24 Hours

Scroll right to see more
 ConditionsComfort  
Time TempWeatherWind HumidityBarometerVisibility
9:53 PM
Fri, Jul 29
70 °FFog.No wind97%29.89 "Hg6 mi
8:53 PM72 °FSunny.No wind91%29.88 "Hg8 mi
7:53 PM75 °FSunny.No wind85%29.86 "Hg10 mi
6:53 PM76 °FSunny.5 mph82%29.84 "Hg10 mi
5:53 PM79 °FSunny.8 mph74%29.82 "Hg10 mi
4:53 PM80 °FScattered clouds.14 mph74%29.81 "Hg10 mi
3:53 PM78 °FBroken clouds.10 mph76%29.80 "Hg10 mi
2:53 PM78 °FPassing clouds.14 mph74%29.81 "Hg10 mi
1:53 PM75 °FBroken clouds.10 mph85%29.83 "Hg10 mi
1:02 PM74 °FBroken clouds.9 mph91%29.85 "Hg10 mi
12:53 PM73 °FLight rain. Mostly cloudy.9 mph94%29.84 "Hg8 mi
11:53 AM72 °FLight rain. Fog.7 mph97%29.86 "Hg3 mi
10:49 AM71 °FHeavy rain. Fog.9 mph93%29.88 "Hg1 mi
9:53 AM73 °FLight rain. Fog.9 mph90%29.85 "Hg5 mi
8:53 AM73 °FLight rain. Overcast.6 mph94%29.84 "Hg8 mi
7:53 AM74 °FOvercast.7 mph88%29.84 "Hg10 mi
6:53 AM74 °FLight rain. Fog.5 mph97%29.85 "Hg3 mi
5:53 AM74 °FFog.No wind100%29.84 "Hg0 mi
4:53 AM75 °FFog.No wind96%29.84 "Hg1 mi
3:53 AM75 °FFog.5 mph100%29.84 "Hg1 mi
2:53 AM75 °FFog.5 mph100%29.85 "Hg1 mi
1:53 AM74 °FFog.8 mph100%29.87 "Hg0 mi
12:53 AM75 °FFog.6 mph96%29.87 "Hg5 mi
11:53 PM
Thu, Jul 28
75 °FFog.6 mph96%29.88 "Hg5 mi
Weather by CustomWeather, © 2016

See weather overviewHow to use our weather pages